TIME,DELAY(SENSOR),PRES,T(CTD),SAL,OXYGEN,RAWTEMP,T(OPTODE),TCPHASE,FLUOR,BETA(BETA700),BETA(BETA412),BETA(BETA440),CDOM,C(CSC),ED(ED412.40),ED(ED444.00),ED(ED489.70),ED(ED554.30),LU(LU411.80),LU(LU443.40),LU(LU489.60),LU(LU554.10),COMP,TILTX,TILTX(TILTY),CHECK
1378330654,5807,495.1300048828125000,6.6360998153686520,34.1282997131347660,73.6581573486328100,598.7850952148438000,6.6235051155090330,49.6500015258789060,53,103,86,79,77,15289,2147749403,2147424594,2148007625,2147873069,2147628306,2147075629,2148249645,2147203044,1700,4,13,47342
1378330826,5809,481.6900024414062500,7.0932998657226560,34.1458015441894500,81.6372528076171900,584.7587890625000000,7.0755200386047360,48.4953613281250000,51,102,85,79,76,15288,2147747757,2147427638,2148006939,2147872448,2147628096,2147074889,2148245321,2147200283,3396,3,13,28984
1378330948,5809,469.9500122070312500,7.2684998512268070,34.1545982360839840,82.6580200195312500,579.0576782226562000,7.2587242126464840,48.2898902893066400,52,103,86,80,77,15286,2147743021,2147426011,2148004544,2147871954,2147624045,2147081718,2148237824,2147202240,2255,4,13,29402
1378331051,5808,458.9599914550781000,7.4517998695373535,34.1701011657714840,82.0556869506836000,573.3624267578125000,7.4414582252502440,48.2768287658691400,52,103,87,78,77,15283,2147744804,2147426212,2148003062,2147874066,2147624502,2147076800,2148241892,2147202276,2384,4,13,7975
1378331157,5807,447.7399902343750000,7.6666002273559570,34.1632995605468750,86.5293731689453100,566.5042114257812000,7.6611161231994630,47.6562614440918000,51,103,87,79,76,15285,2147741961,2147425801,2148005394,2147870912,2147621266,2147082697,2148241106,2147201179,2122,4,13,517
1378331260,5807,437.1700134277344000,7.7852001190185550,34.1413002014160160,100.1520004272461000,564.3851928710938000,7.7289009094238280,46.1191711425781250,51,103,88,78,75,15286,2147739602,2147424960,2148004507,2147874130,2147623698,2147081801,2148234642,2147205147,1574,4,13,54667
1378331375,5807,425.8399963378906000,8.0972003936767580,34.1568984985351560,102.9906005859375000,553.5797729492188000,8.0739631652832030,45.6477394104003900,51,103,88,81,75,15285,2147738825,2147430445,2148005065,2147872201,2147622729,2147082313,2148236790,2147201572,38,4,13,8219
1378331504,5806,414.8099975585937500,8.1068000793457030,34.1262016296386700,115.1656036376953100,552.6118164062500000,8.1048297882080080,44.3957481384277340,51,105,83,79,75,15287,2147740214,2147425554,2148008155,2147869165,2147619026,2147082614,2148230043,2147204864,2690,4,14,19217
1378331670,5808,403.8800048828125000,8.3062000274658200,34.0969009399414060,137.0413970947265600,546.5631103515625000,8.2975139617919920,42.2701606750488300,50,104,89,79,74,15287,2147742555,2147424667,2148004406,2147874029,2147621403,2147084873,2148233106,2147207030,2228,4,13,61471
1378331830,5808,391.9700012207031000,8.6590003967285160,34.1026000976562500,150.3242950439453000,535.0524291992188000,8.6633777618408200,40.9543495178222660,50,104,85,80,73,15287,2147741321,2147422628,2148003483,2147875666,2147617124,2147085970,2148231552,2147204050,1057,4,13,32201
1378331945,5808,381.7799987792969000,8.9399003982543950,34.1078987121582000,157.6504974365234400,526.3798828125000000,8.9383411407470700,40.2225189208984400,50,106,83,79,73,15286,2147736905,2147426660,2148006555,2147874752,2147617243,2147088704,2148235099,2147204809,368,4,12,5315
1378332086,5811,370.2399902343750000,9.4617996215820310,34.1240005493164060,164.2297973632812500,510.3328857421875000,9.4456062316894530,39.4429588317871100,50,104,85,79,72,15286,2147738112,2147424603,2148005412,2147872283,2147613750,2147093412,2148223552,2147204726,3487,3,13,35286
1378332237,5808,359.5599975585937500,9.8133001327514650,34.1302986145019500,166.8603973388672000,499.2361145019531000,9.7952995300292970,39.0557212829589840,50,104,84,80,70,15285,2147735067,2147426176,2148006994,2147870226,2147613924,2147097024,2148225133,2147203355,2902,3,13,1774
1378332427,5808,346.6799926757812500,10.0757999420166020,34.1307983398437500,174.6784973144531200,490.0938110351562500,10.0827503204345700,38.3330192565918000,50,106,86,79,70,15285,2147736137,2147429659,2148004534,2147872054,2147611072,2147096082,2148223122,2147208530,1967,4,13,60789
1378332565,5811,335.0100097656250000,10.6143999099731450,34.1357002258300800,183.2593994140625000,472.7742919921875000,10.6258001327514650,37.4477081298828100,49,104,88,79,70,15284,2147733924,2147427428,2148012708,2147870939,2147609270,2147099154,2148227300,2147205138,2130,3,13,23612
1378332682,5806,324.2699890136719000,11.3852996826171880,34.1587982177734400,191.1782073974609400,448.5786132812500000,11.3813295364379880,36.5246810913085940,50,104,85,79,69,15283,2147728987,2147425700,2148010486,2147873088,2147607012,2147102875,2148219062,2147206619,1627,3,13,39673
1378332797,5809,313.4400024414062500,11.8591003417968750,34.1926002502441400,206.5865936279297000,433.3402099609375000,11.8554496765136720,35.3268013000488300,49,104,85,79,68,15283,2147728640,2147429312,2148015149,2147869979,2147604105,2147108352,2148220498,2147205184,3290,3,13,8681
1378332912,5810,302.2600097656250000,12.3477001190185550,34.2106018066406250,208.1990051269531200,416.1642150878906000,12.3884000778198240,34.9588890075683600,49,103,88,79,67,15277,2147728374,2147432310,2148012489,2147871990,2147601526,2147114221,2148219867,2147210934,2385,3,13,57295
1378333041,5807,291.1199951171875000,12.6796998977661130,34.2280006408691400,209.7003936767578000,405.8395080566406000,12.7080698013305660,34.7091789245605500,49,104,86,80,67,15279,2147723721,2147435529,2148039524,2147870208,2147598308,2147126656,2148223204,2147205202,399,4,13,9807
1378333192,5811,280.7300109863281000,13.3137998580932620,34.2736015319824200,210.1979064941406200,386.3548889160156000,13.3100500106811520,34.3783607482910160,48,105,88,79,68,15280,2147724717,2147428726,2148013101,2147872612,2147595565,2147126518,2148210870,2147207360,469,3,13,45704
1378333367,5806,269.2999877929687500,14.0242996215820310,34.3394012451171900,212.6260986328125000,362.3447875976562500,14.0497598648071290,33.8733406066894500,48,106,85,81,67,15278,2147717266,2147432274,2148011529,2147870848,2147592758,2147124077,2148210422,2147210816,1308,3,13,35111
1378333506,5810,258.4400024414062500,15.0124998092651370,34.4300994873046900,212.2655944824218800,331.6340942382812500,14.9930801391601560,33.4347686767578100,48,104,86,79,67,15278,2147720658,2147440064,2148047195,2147875035,2147586486,2147139328,2148225572,2147210057,1287,3,13,23459
1378333648,5808,245.3000030517578000,15.6710996627807620,34.5032997131347660,212.2781066894531200,308.8913879394531000,15.6900196075439450,33.0999603271484400,49,104,86,78,66,15272,2147715876,2147439808,2148034304,2147870107,2147584722,2147148589,2148212288,2147214043,3327,2,14,129
1378333749,5806,234.0800018310547000,16.2222995758056640,34.5756988525390600,211.0877990722656200,290.8781127929687500,16.2412605285644530,32.9053802490234400,49,105,84,80,65,15273,2147716544,2147464768,2148098011,2147873682,2147581430,2147157915,2148234038,2147217398,2628,3,14,26065
1378333852,5809,222.7200012207031200,16.8362007141113280,34.6487007141113300,209.9288024902343800,269.7898864746094000,16.8859596252441400,32.6680107116699200,50,106,84,79,66,15266,2147723858,2147559780,2148357924,2147873115,2147580461,2147221348,2148356114,2147224100,1419,2,14,6810
1378333981,5807,210.5599975585937500,17.7525997161865230,34.7601013183593750,210.7700042724609400,241.6979980468750000,17.7441005706787100,32.2241706848144500,50,106,90,79,63,15268,2147738916,2147624557,2148492507,2147869622,2147584777,2147267803,2148421504,2147225508,504,2,14,5161
1378334134,5809,199.8899993896484400,18.3486003875732420,34.8381004333496100,214.0704040527343800,222.1761932373047000,18.3402595520019530,31.7723293304443360,52,105,86,80,62,15266,2147727780,2147556589,2148295433,2147874084,2147575890,2147234075,2148321078,2147222537,2480,2,15,60091
1378334189,5809,196.6799926757812500,18.4925994873046880,34.8614997863769500,214.5937957763672000,217.6190032958984400,18.4794292449951170,31.6811695098876950,54,108,82,80,64,15254,2147757888,2147721993,2148697060,2147873435,2147588013,2147336347,2148518089,2147235958,2306,2,14,46225
1378334274,5809,192.6499938964843800,18.5737991333007800,34.8744010925293000,214.6537933349609400,214.7516021728515600,18.5670108795166000,31.6385498046875000,55,107,88,79,63,15256,2147770450,2147779282,2148809042,2147875245,2147590628,2147367067,2148568640,2147237440,1929,2,15,28278
1378334377,5807,189.0200042724609400,18.8756008148193360,34.9118995666503900,213.1515960693359400,204.8162994384765600,18.8704605102539060,31.5833091735839840,58,107,85,79,63,15258,2147782345,2147801088,2148848091,2147873325,2147595474,2147384868,2148579657,2147242788,792,2,14,62797
1378334504,5808,185.1799926757812500,19.1210002899169920,34.9446983337402340,213.7799072265625000,197.3365020751953000,19.0989494323730470,31.4470596313476560,58,110,87,80,63,15250,2147797238,2147855378,2148963830,2147874797,2147600557,2147416118,2148640987,2147244873,2966,2,15,8160
1378334620,5810,180.2500000000000000,19.4325008392334000,34.9827995300293000,213.4806976318359400,186.5933990478515600,19.4272193908691400,31.3169097900390620,60,108,86,81,63,15248,2147818194,2147913865,2149088466,2147876452,2147609810,2147446445,2148696548,2147251401,2509,2,15,3329
1378334699,5810,176.4799957275390600,19.5634002685546880,35.0060997009277340,214.6717071533203000,182.2176055908203000,19.5609607696533200,31.1940402984619140,59,112,88,79,62,15244,2147837869,2147968932,2149203218,2147872832,2147619282,2147486153,2148751478,2147257060,2425,2,15,65481
1378334778,5806,172.8200073242187500,19.7882003784179700,35.0391006469726560,216.3865051269531200,173.9945068359375000,19.8123607635498050,30.9925498962402340,61,113,89,81,62,15233,2147859968,2148031305,2149336118,2147876964,2147626770,2147529645,2148811547,2147261284,2576,2,15,640
1378334883,5810,168.6000061035156200,20.1329002380371100,35.0786018371582000,216.9246063232422000,163.8686981201172000,20.1220493316650400,30.8285102844238280,67,114,89,81,62,15234,2147899858,2148135872,2149552411,2147877558,2147640969,2147592146,2148903186,2147263524,1589,2,15,37055
1378334986,5809,164.8399963378906200,20.3299007415771500,35.1077003479003900,217.3305053710937500,157.7785034179687500,20.3083992004394530,30.7259292602539060,72,117,87,81,61,15226,2147951433,2148266633,2149782180,2147879424,2147660214,2147664713,2149017179,2147274112,1300,2,15,16526
1378335089,5808,160.6199951171875000,20.4410991668701170,35.1226005554199200,218.2303924560547000,153.7608947753906200,20.4313793182373050,30.6257896423339840,76,114,86,83,61,15241,2148026221,2148433609,2150083364,2147881901,2147695716,2147758445,2149147072,2147284224,1717,2,15,32616
1378335182,5807,156.3300018310547000,20.5433006286621100,35.1343994140625000,218.4210968017578000,150.1531066894531200,20.5418300628662100,30.5679798126220700,78,115,89,80,61,15238,2148110829,2148610642,2150397494,2147884928,2147727808,2147850322,2149288256,2147294491,1736,1,15,5411
1378335261,5809,152.7799987792968800,20.8411998748779300,35.1590995788574200,218.2400970458984400,141.5021972656250000,20.8067893981933600,30.4629707336425780,87,118,87,82,59,15231,2148202011,2148801892,2150731958,2147888283,2147762121,2147953764,2149431131,2147308955,884,2,15,32266
1378335364,5809,149.2799987792968800,20.9888000488281250,35.1730003356933600,218.2162017822265600,136.1309967041015600,20.9713802337646500,30.3933506011962900,94,118,88,81,62,15221,2148307776,2149027446,2151128676,2147892086,2147803885,2148062683,2149588681,2147312694,894,2,15,29768
1378335545,5806,144.7799987792968800,21.0923004150390620,35.1852989196777340,219.1423950195312500,129.6488037109375000,21.1701107025146500,30.2602901458740230,97,119,85,82,61,15208,2148496338,2149369782,2151722294,2147899858,2147874258,2148202212,2149801499,2147332205,163,2,15,14299
1378335672,5810,141.3000030517578000,21.4092998504638670,35.2172012329101560,222.3148956298828000,122.1638031005859400,21.3997192382812500,30.0015602111816400,104,121,86,82,61,15197,2148675968,2149678500,2152223250,2147904621,2147938953,2148327296,2149961755,2147349312,2341,2,15,62326
1378335828,5807,136.3200073242187500,21.6420993804931640,35.2327003479003900,224.7413024902343800,114.4825973510742200,21.6355094909667970,29.7803592681884770,107,124,87,82,61,15192,2149109970,2150410176,2153379556,2147921600,2148099437,2148640420,2150391259,2147382656,1506,2,15,15382
1378335907,5807,132.1799926757812500,21.7287006378173830,35.2370986938476560,225.4120025634765600,111.7083969116211000,21.7207107543945300,29.7116298675537100,116,126,89,83,61,15181,2149536950,2151102829,2154456036,2147934985,2148259209,2148950829,2150790445,2147422299,656,2,15,50495
1378335974,5807,128.5000000000000000,21.7924003601074220,35.2428016662597660,226.2245941162109400,109.0733032226562500,21.8016605377197270,29.6375694274902340,117,124,89,81,61,15172,2150033654,2151865316,2155574829,2147954962,2148439442,2149263277,2151206162,2147454738,3435,2,16,10243
1378336053,5806,124.6100006103515600,22.1011009216308600,35.2689018249511700,228.4409027099609400,99.8812026977539000,22.0842094421386720,29.4110202789306640,127,125,87,82,62,15169,2150699264,2152873654,2157004160,2147980077,2148677888,2149665654,2151705481,2147505517,3080,2,15,36858
1378336158,5806,120.7900009155273400,22.2791996002197270,35.2751007080078100,230.9584045410156200,94.6140899658203100,22.2462406158447270,29.2227191925048830,128,121,89,83,62,15158,2151790189,2154451264,2159061668,2148013924,2149052836,2150251666,2152401947,2147566866,2913,2,15,43244
1378336297,5809,117.4199981689453100,22.5800991058349600,35.2933998107910160,234.4349060058593800,84.3914413452148400,22.5610008239746100,28.9286994934082030,120,120,89,83,60,15158,2153232274,2156462848,2161454619,2148053467,2149564571,2150993682,2153203017,2147651638,2486,1,16,59157
1378336453,5809,112.0599975585937500,22.7707004547119140,35.2998008728027340,236.5334014892578000,77.9593963623046900,22.7592391967773440,28.7499103546142580,103,119,90,83,60,15165,2155678354,2159769161,2165399744,2148144804,2150522880,2152420032,2154810614,2147806308,2739,2,15,7359
1378336520,5810,108.0999984741211000,22.9183998107910160,35.3036003112793000,237.4918060302734400,73.2420578002929700,22.9047298431396500,28.6462593078613280,102,122,89,84,59,15165,2157628928,2162373814,2168486363,2148231597,2151341494,2153623524,2156137380,2147929435,2913,2,15,44233
1378336587,5809,104.1500015258789000,23.0146007537841800,35.3021011352539060,238.3518981933593800,69.7851409912109400,23.0114097595214840,28.5635604858398440,97,119,88,84,58,15161,2159855442,2165240100,2171724845,2148342884,2152288484,2154947008,2157537481,2148071030,2824,1,16,54968
1378336654,5807,100.5800018310546900,23.1054992675781250,35.3025016784668000,238.6678924560547000,67.0165634155273400,23.0968799591064450,28.5142707824707030,92,123,91,86,59,15155,2163108928,2169374418,2176344466,2148491529,2153676178,2156917824,2159584420,2148270765,2865,1,16,13861
1378336709,5808,98.1699981689453100,23.1345996856689450,35.3031005859375000,238.8330993652343800,65.4424133300781200,23.1454906463623050,28.4871006011962900,90,123,89,84,59,15154,2163611876,2169292187,2175061705,2148483456,2154057718,2157183771,2159523629,2148272932,2716,1,16,26650
1378336767,5805,95.9700012207031200,23.2712993621826170,35.3023986816406250,239.1952972412109400,61.8913688659668000,23.2551803588867200,28.4262695312500000,85,124,89,84,57,15157,2157543872,2160058971,2162611958,2148206180,2151633051,2153074441,2154443538,2147809206,3339,1,16,27502
1378336834,5808,93.9499969482421900,23.3365001678466800,35.3045997619628900,240.1062927246093800,59.7368583679199200,23.3217697143554700,28.3582191467285160,84,124,89,84,59,15154,2171379977,2178456667,2184718646,2148835785,2157537179,2161826816,2163982061,2148709997,114,1,16,24417
1378336901,5808,92.0199966430664000,23.3717994689941400,35.3040008544921900,240.6360931396484400,58.2196502685546900,23.3686695098876950,28.3152408599853500,83,126,90,85,60,15158,2174314541,2181519478,2187268900,2148935643,2159002386,2163538678,2165306797,2148844004,674,2,16,3065
1378336968,5806,89.9400024414062500,23.4444999694824220,35.3035011291503900,240.9913024902343800,56.0258102416992200,23.4365005493164060,28.2719707489013670,83,124,90,84,57,15157,2178719689,2186453257,2192196086,2149165522,2161066468,2166108361,2167560521,2149077696,728,1,15,17668
1378337035,5807,88.0899963378906200,23.5708999633789060,35.3022003173828100,241.3778076171875000,52.1085281372070300,23.5576705932617200,28.2059593200683600,79,127,90,83,58,15154,2181565485,2189235602,2194490825,2149310034,2162487542,2167675392,2168765586,2149202084,3025,1,16,54431
1378337120,5804,85.7500000000000000,23.8631992340087900,35.3149986267089840,242.4924011230468800,43.5128402709960940,23.8238201141357420,28.0492897033691400,76,129,90,85,58,15135,2187458669,2195361371,2199971830,2149613796,2165789997,2171478208,2171816347,2149516342,2606,1,16,43602
1378337175,5808,84.0800018310546900,24.0400009155273440,35.3180007934570300,244.5590972900390600,37.5015411376953100,24.0101509094238280,27.8839607238769530,76,126,92,85,57,15134,2190753115,2198181485,2202094674,2149782125,2168104018,2174083858,2173810368,2149721517,3461,1,16,35930
1378337254,5807,82.1900024414062500,24.1049003601074220,35.3226013183593750,247.0523986816406200,34.8078918457031250,24.0937004089355470,27.7419300079345700,76,128,90,86,57,15126,2195575917,2203206646,2206674870,2150006793,2170912548,2177133302,2176045796,2149933979,3088,1,16,22623
1378337333,5810,80.0500030517578100,24.1424007415771500,35.3242988586425800,248.6954040527343800,33.4017181396484400,24.1373291015625000,27.6537895202636720,73,131,91,86,55,15125,2201502253,2209019757,2211931940,2150411776,2174979254,2181702363,2179615259,2150308224,58,2,15,18198
1378337428,5808,76.5100021362304700,24.5242996215820300,35.3605995178222660,249.2136993408203000,21.8377990722656250,24.4965305328369140,27.4897804260253900,73,131,93,85,57,15107,2210225508,2217548553,2219487094,2151163172,2181158601,2188256137,2184500589,2150868644,740,1,16,49887
1378337483,5810,73.9800033569336000,24.7626991271972660,35.3749008178710940,250.6168975830078000,14.3184404373168950,24.7304801940917970,27.3382492065429700,70,132,92,85,61,15111,2217024118,2224140032,2225820964,2151825910,2186388699,2193803145,2188702674,2151324589,161,2,16,43189
1378337538,5808,71.6999969482421900,24.8612003326416000,35.3675003051757800,251.6078948974609400,11.1810503005981450,24.8281898498535160,27.2581195831298830,70,134,92,87,57,15106,2222666642,2229461321,2230471981,2152350171,2191134070,2198839753,2192484598,2151753581,409,2,16,39285
1378337593,5808,69.3499984741211000,24.9995994567871100,35.3648986816406250,251.7525024414062500,7.1334509849548340,24.9543209075927730,27.2027397155761720,68,130,93,87,56,15103,2230378980,2237718171,2238903789,2153258304,2196332480,2204288850,2196609325,2152258898,650,1,16,24900
1378337648,5804,67.1299972534179700,25.0865993499755860,35.3652000427246100,251.6725006103515600,4.8009400367736820,25.0270500183105470,27.1776905059814450,70,131,92,86,55,15096,2239058048,2247022290,2248270208,2154318400,2202010834,2210489846,2201560841,2152910811,793,2,15,46894
1378337706,5810,64.9400024414062500,25.3173999786376950,35.3716011047363300,251.4575958251953000,-0.9814112782478333,25.2074794769287100,27.1165504455566400,67,134,90,86,58,15101,2244542125,2252625709,2253652160,2155366400,2206801188,2215453302,2205340160,2153450084,1288,2,16,45456
1378337761,5807,63.2400016784668000,25.4717006683349600,35.3904991149902340,251.4302978515625000,-7.0656900405883790,25.3975391387939450,27.0439090728759770,69,132,92,87,57,15103,2247943844,2256335990,2257222811,2156090797,2210035145,2218652672,2207785462,2153815497,2010,1,16,35592
1378338205,5812,61.4500007629394500,25.7175998687744140,35.4024009704589840,251.8106994628906200,-17.2679805755615230,25.7167606353759770,26.9044303894042970,64,133,91,87,55,15095,2259138971,2265484498,2263334244,2156946020,2221712201,2228483821,2212556635,2154346998,2436,1,16,31327
1378338296,5816,58.8800010681152340,25.7574005126953120,35.4085998535156250,251.9093017578125000,-18.6857604980468750,25.7611808776855470,26.8832397460937500,63,133,94,87,55,15094,2279525696,2285211675,2281145398,2159184722,2238645421,2245428242,2224390171,2155709147,1787,0,16,43449
1378338381,5809,54.9399986267089840,25.9368000030517580,35.4076995849609400,251.2826995849609400,-24.0233802795410160,25.9284992218017580,26.8448905944824220,63,131,95,87,55,15089,2297583917,2300417892,2295057910,2162517147,2256942354,2263282404,2237250944,2157542610,824,1,16,50514
1378338436,5809,52.1899986267089840,26.1741008758544920,35.3964996337890600,250.0455017089843800,-31.1962699890136720,26.1536407470703120,26.8101501464843750,62,132,90,86,56,15083,2309147556,2310677147,2303284059,2164800996,2268300653,2273781796,2244200118,2158827602,1117,1,16,12766
1378338491,5817,50.3199996948242200,26.5499000549316400,35.3642005920410160,247.2142028808593800,-43.4904212951660160,26.5403308868408200,26.7812805175781250,60,140,91,86,59,15058,2324477632,2324797860,2316412068,2168383817,2276927872,2281678738,2249506532,2159311451,3471,0,17,52686
1378338546,5807,49.5900001525878900,26.9148006439209000,35.3424987792968750,243.5679016113281200,-54.0571899414062500,26.8735408782959000,26.8095302581787100,61,135,105,87,57,15076,2326398747,2326506413,2317881846,2167517083,2281925632,2286888338,2253261659,2160014802,399,0,16,61011
1378339054,5808,47.5800018310546900,27.6291999816894530,35.2797012329101560,230.9225006103515600,-77.2474670410156200,27.6077098846435550,27.0877990722656250,58,126,91,86,57,15109,2344503104,2344301833,2334675428,2171721435,2301101275,2303686473,2263932041,2161868690,562,0,16,25390
1378339366,5806,45.5200004577636700,27.7812004089355470,35.2584991455078100,226.2621002197265600,-82.8443298339843800,27.7855300903320300,27.2340106964111330,56,123,91,83,51,15124,2358593920,2358398838,2348770441,2175830848,2328842989,2329244864,2280504164,2164181467,382,0,17,9615
1378339565,5811,43.5400009155273440,27.8029003143310550,35.2538986206054700,224.3347930908203000,-83.9711990356445300,27.8213596343994140,27.3103103637695300,53,118,91,83,53,15125,2343291209,2341434596,2331685842,2176160548,2341889398,2335225453,2279623661,2163718756,3215,0,16,23294
1378339650,5808,40.8499984741210940,27.8034000396728500,35.2542991638183600,224.0283966064453000,-83.7337875366211000,27.8138103485107420,27.3277606964111330,52,119,89,82,51,15126,2362698185,2362034861,2352839131,2183713069,2368910592,2357096100,2292051611,2165832786,2992,1,17,11274
1378339705,5805,37.8499984741210940,27.8036003112792970,35.2538986206054700,223.9261016845703000,-83.7628021240234400,27.8147296905517580,27.3320407867431640,53,116,90,83,56,15127,2378716114,2379012068,2371285394,2192766829,2391934134,2375225956,2302384310,2168373915,2876,0,17,58973
1378339760,5804,34.6199989318847660,27.8043003082275400,35.2527999877929700,223.9537048339843800,-83.8073501586914000,27.8161506652832030,27.3302402496337900,53,118,90,83,56,15126,2382786276,2382016658,2374669942,2199746733,2417173037,2395431488,2314122212,2170876928,2748,0,17,9262
1378339815,5819,31.3799991607666000,27.8071994781494140,35.2523002624511700,223.8650970458984400,-83.8759994506836000,27.8183307647705080,27.3337097167968750,52,117,89,82,52,15128,2417389696,2420941504,2417202624,2218508132,2459343305,2432963236,2338547181,2176782893,2652,1,17,40804
1378339870,5805,28.1200008392334000,27.8115997314453120,35.2528991699218750,223.8551025390625000,-84.0115203857421900,27.8226394653320300,27.3323707580566400,53,117,89,82,54,15132,2434521161,2437481435,2435756644,2236144073,2498184292,2466039734,2359338459,2182279981,2679,0,17,15436